| time (UTC) | temp F | wind direction | speed MPH | gust MPH | rain 1hr in | rain 24hr in | rain mn in | humidity % | barometer mb |
| 20260508015739 | 54 | 321 | 0.0 | 0.0 | 0.00 | 0.49 | 0.47 | 92 | 1012.5 |
| 20260508015219 | 54 | 321 | 0.0 | 0.0 | 0.00 | 0.49 | 0.47 | 92 | 1012.4 |
| 20260508014719 | 54 | 38 | 0.0 | 0.0 | 0.00 | 0.49 | 0.47 | 91 | 1012.3 |
| 20260508014226 | 54 | 321 | 0.0 | 0.0 | 0.00 | 0.49 | 0.47 | 91 | 1012.2 |
| 20260508013727 | 54 | 321 | 0.0 | 0.0 | 0.00 | 0.49 | 0.47 | 91 | 1012.1 |
| 20260508013234 | 54 | 37 | 0.0 | 0.0 | 0.00 | 0.49 | 0.47 | 91 | 1011.9 |
| 20260508012733 | 54 | 38 | 0.0 | 0.0 | 0.00 | 0.49 | 0.47 | 91 | 1011.8 |
| 20260508012219 | 54 | 321 | 0.0 | 0.0 | 0.00 | 0.49 | 0.47 | 91 | 1011.9 |
| 20260508011721 | 54 | 321 | 0.0 | 0.0 | 0.00 | 0.49 | 0.47 | 91 | 1011.9 |
| 20260508011228 | 54 | 321 | 0.0 | 0.0 | 0.00 | 0.49 | 0.47 | 91 | 1012.0 |
| 20260508010729 | 55 | 321 | 0.0 | 0.0 | 0.00 | 0.49 | 0.47 | 91 | 1012.0 |
| 20260508010230 | 55 | 321 | 0.0 | 0.0 | 0.00 | 0.49 | 0.47 | 91 | 1011.9 |
| 20260508005737 | 55 | 321 | 0.0 | 0.0 | 0.00 | 0.49 | 0.47 | 91 | 1011.7 |
| 20260508005217 | 54 | 321 | 0.0 | 0.0 | 0.00 | 0.49 | 0.47 | 91 | 1011.7 |
| 20260508004715 | 54 | 321 | 0.0 | 0.0 | 0.00 | 0.49 | 0.47 | 91 | 1011.7 |
| 20260508004222 | 54 | 321 | 0.0 | 0.0 | 0.00 | 0.49 | 0.47 | 91 | 1011.6 |
| 20260508003742 | 54 | 321 | 0.0 | 0.0 | 0.00 | 0.49 | 0.47 | 91 | 1011.4 |
| 20260508003228 | 55 | 321 | 0.0 | 0.0 | 0.00 | 0.49 | 0.47 | 91 | 1011.4 |
| 20260508002755 | 55 | 321 | 0.0 | 0.0 | 0.00 | 0.49 | 0.47 | 91 | 1011.4 |
| 20260508002216 | 55 | 321 | 0.0 | 0.0 | 0.00 | 0.49 | 0.47 | 91 | 1011.4 |
| 20260508001717 | 55 | 321 | 0.0 | 0.0 | 0.00 | 0.49 | 0.47 | 91 | 1011.2 |
| 20260508001242 | 55 | 321 | 0.0 | 0.0 | 0.00 | 0.49 | 0.47 | 91 | 1011.2 |
| 20260508000723 | 55 | 321 | 0.0 | 0.0 | 0.00 | 0.49 | 0.47 | 91 | 1011.4 |
| 20260508000230 | 55 | 321 | 0.0 | 0.0 | 0.00 | 0.49 | 0.47 | 91 | 1011.4 |
| 20260507235730 | 55 | 321 | 0.0 | 1.0 | 0.00 | 0.49 | 0.47 | 91 | 1011.3 |
| 20260507235212 | 55 | 321 | 0.0 | 1.0 | 0.00 | 0.49 | 0.47 | 91 | 1011.2 |
| 20260507234723 | 55 | 321 | 0.0 | 2.0 | 0.00 | 0.49 | 0.47 | 91 | 1011.1 |
| 20260507234224 | 55 | 321 | 1.0 | 2.0 | 0.00 | 0.49 | 0.47 | 91 | 1011.0 |
| 20260507233755 | 55 | 321 | 0.0 | 0.0 | 0.00 | 0.49 | 0.47 | 91 | 1011.1 |
| 20260507233215 | 55 | 321 | 0.0 | 0.0 | 0.00 | 0.49 | 0.47 | 91 | 1010.9 |
| 20260507232716 | 55 | 321 | 0.0 | 2.0 | 0.00 | 0.49 | 0.47 | 91 | 1010.8 |
| 20260507232225 | 55 | 321 | 0.0 | 2.0 | 0.00 | 0.49 | 0.47 | 91 | 1010.5 |
| 20260507231724 | 55 | 321 | 1.0 | 2.0 | 0.00 | 0.49 | 0.47 | 91 | 1010.5 |
| 20260507231224 | 55 | 321 | 0.0 | 3.0 | 0.00 | 0.49 | 0.47 | 91 | 1010.3 |
| 20260507230731 | 55 | 321 | 2.0 | 3.0 | 0.00 | 0.49 | 0.47 | 90 | 1010.4 |
| 20260507230213 | 55 | 321 | 1.0 | 4.0 | 0.00 | 0.49 | 0.47 | 91 | 1010.3 |
| 20260507225742 | 55 | 321 | 1.0 | 4.0 | 0.00 | 0.49 | 0.47 | 91 | 1010.2 |
| 20260507225243 | 55 | 321 | 1.0 | 6.0 | 0.00 | 0.49 | 0.47 | 91 | 1010.3 |
| 20260507224728 | 55 | 55 | 2.0 | 6.0 | 0.00 | 0.49 | 0.47 | 91 | 1010.3 |
| 20260507224228 | 55 | 321 | 2.0 | 6.0 | 0.00 | 0.49 | 0.47 | 91 | 1010.3 |
| 20260507223737 | 55 | 50 | 1.0 | 8.0 | 0.00 | 0.49 | 0.47 | 91 | 1010.3 |
| 20260507223217 | 55 | 91 | 2.0 | 8.0 | 0.00 | 0.49 | 0.47 | 91 | 1010.3 |
| 20260507222740 | 55 | 49 | 2.0 | 4.0 | 0.00 | 0.49 | 0.47 | 91 | 1010.0 |
| 20260507222224 | 55 | 321 | 1.0 | 4.0 | 0.00 | 0.49 | 0.47 | 91 | 1010.3 |
| 20260507221725 | 55 | 321 | 1.0 | 6.0 | 0.00 | 0.49 | 0.47 | 91 | 1010.5 |
| 20260507221231 | 55 | 321 | 3.0 | 6.0 | 0.00 | 0.49 | 0.47 | 91 | 1010.7 |
| 20260507220713 | 55 | 321 | 2.0 | 5.0 | 0.00 | 0.49 | 0.47 | 92 | 1010.7 |
| 20260507220214 | 55 | 321 | 2.0 | 5.0 | 0.00 | 0.49 | 0.47 | 92 | 1010.8 |
| 20260507215718 | 55 | 321 | 1.0 | 3.0 | 0.00 | 0.49 | 0.47 | 92 | 1010.6 |
| 20260507215220 | 55 | 321 | 2.0 | 4.0 | 0.00 | 0.49 | 0.47 | 92 | 1010.5 |
| 20260507214719 | 55 | 321 | 1.0 | 5.0 | 0.00 | 0.49 | 0.47 | 92 | 1010.3 |
| 20260507214225 | 55 | 321 | 2.0 | 5.0 | 0.00 | 0.49 | 0.47 | 92 | 1010.2 |
| 20260507213727 | 55 | 57 | 1.0 | 3.0 | 0.00 | 0.49 | 0.47 | 92 | 1010.1 |
| 20260507213229 | 55 | 321 | 1.0 | 3.0 | 0.00 | 0.49 | 0.47 | 92 | 1010.3 |
| 20260507212737 | 55 | 321 | 0.0 | 3.0 | 0.00 | 0.49 | 0.47 | 93 | 1010.3 |
| 20260507212217 | 55 | 84 | 2.0 | 4.0 | 0.00 | 0.49 | 0.47 | 93 | 1010.2 |
| 20260507211746 | 55 | 321 | 1.0 | 7.0 | 0.00 | 0.49 | 0.47 | 93 | 1010.1 |
| 20260507211225 | 55 | 26 | 2.0 | 7.0 | 0.00 | 0.49 | 0.47 | 93 | 1010.1 |
| 20260507210726 | 55 | 87 | 3.0 | 4.0 | 0.00 | 0.49 | 0.47 | 93 | 1010.0 |
| 20260507210233 | 55 | 43 | 2.0 | 6.0 | 0.00 | 0.49 | 0.47 | 93 | 1010.3 |
| 20260507205715 | 55 | 10 | 2.0 | 6.0 | 0.00 | 0.49 | 0.47 | 93 | 1010.3 |
| 20260507204250 | 55 | 321 | 2.0 | 4.0 | 0.00 | 0.49 | 0.47 | 93 | 1009.9 |
| 20260507203505 | 55 | 321 | 2.0 | 9.0 | 0.00 | 0.49 | 0.47 | 93 | 1009.8 |
| 20260507202739 | 55 | 321 | 2.0 | 5.0 | 0.00 | 0.49 | 0.47 | 93 | 1010.0 |
| 20260507202415 | 55 | 321 | 2.0 | 9.0 | 0.00 | 0.49 | 0.47 | 93 | 1009.9 |
| 20260507194232 | 55 | 59 | 3.0 | 8.0 | 0.00 | 0.52 | 0.47 | 93 | 1009.8 |
| 20260507193716 | 55 | 32 | 3.0 | 8.0 | 0.00 | 0.52 | 0.47 | 93 | 1009.8 |
| 20260507193226 | 55 | 321 | 3.0 | 8.0 | 0.00 | 0.52 | 0.47 | 93 | 1010.0 |
| 20260507192750 | 56 | 321 | 3.0 | 5.0 | 0.00 | 0.52 | 0.47 | 93 | 1010.0 |
| 20260507192213 | 56 | 321 | 2.0 | 5.0 | 0.00 | 0.52 | 0.47 | 93 | 1010.0 |
| 20260507191746 | 56 | 321 | 2.0 | 5.0 | 0.00 | 0.52 | 0.47 | 93 | 1009.9 |
| 20260507191232 | 57 | 321 | 3.0 | 5.0 | 0.00 | 0.52 | 0.47 | 93 | 1009.9 |
| 20260507190714 | 57 | 321 | 2.0 | 5.0 | 0.00 | 0.52 | 0.47 | 93 | 1009.9 |
| 20260507190217 | 57 | 68 | 2.0 | 5.0 | 0.00 | 0.52 | 0.47 | 93 | 1009.9 |
| 20260507185728 | 57 | 321 | 2.0 | 5.0 | 0.01 | 0.55 | 0.47 | 93 | 1009.8 |
| 20260507185230 | 56 | 321 | 2.0 | 5.0 | 0.01 | 0.55 | 0.47 | 93 | 1009.6 |
| 20260507184730 | 56 | 45 | 3.0 | 8.0 | 0.01 | 0.55 | 0.47 | 93 | 1009.6 |
| 20260507184238 | 56 | 321 | 2.0 | 8.0 | 0.01 | 0.55 | 0.47 | 93 | 1009.6 |
| 20260507183721 | 56 | 321 | 4.0 | 6.0 | 0.01 | 0.55 | 0.47 | 93 | 1009.7 |
| 20260507183223 | 56 | 321 | 1.0 | 6.0 | 0.01 | 0.55 | 0.47 | 93 | 1009.8 |
| 20260507182731 | 56 | 55 | 2.0 | 9.0 | 0.01 | 0.55 | 0.47 | 93 | 1009.5 |
| 20260507182215 | 57 | 321 | 4.0 | 9.0 | 0.01 | 0.55 | 0.47 | 93 | 1009.3 |
| 20260507181720 | 57 | 321 | 2.0 | 8.0 | 0.02 | 0.55 | 0.47 | 93 | 1009.1 |
| 20260507181223 | 57 | 321 | 4.0 | 8.0 | 0.04 | 0.55 | 0.47 | 93 | 1009.4 |
| 20260507180735 | 57 | 321 | 4.0 | 7.0 | 0.07 | 0.55 | 0.47 | 93 | 1009.5 |
| 20260507180219 | 57 | 356 | 3.0 | 6.0 | 0.10 | 0.55 | 0.47 | 93 | 1009.5 |
| 20260507175722 | 57 | 40 | 3.0 | 7.0 | 0.12 | 0.54 | 0.46 | 93 | 1009.6 |
| 20260507175230 | 57 | 44 | 4.0 | 9.0 | 0.16 | 0.54 | 0.46 | 93 | 1009.1 |
| 20260507174713 | 57 | 49 | 5.0 | 9.0 | 0.21 | 0.54 | 0.46 | 93 | 1009.6 |
| 20260507174215 | 57 | 31 | 2.0 | 9.0 | 0.21 | 0.54 | 0.46 | 94 | 1010.3 |
| 20260507173727 | 57 | 59 | 3.0 | 9.0 | 0.22 | 0.54 | 0.46 | 93 | 1010.3 |
| 20260507173227 | 58 | 33 | 4.0 | 9.0 | 0.22 | 0.54 | 0.46 | 93 | 1010.0 |
| 20260507172729 | 58 | 50 | 2.0 | 5.0 | 0.22 | 0.54 | 0.46 | 93 | 1009.5 |
| 20260507172238 | 58 | 15 | 4.0 | 5.0 | 0.22 | 0.54 | 0.46 | 94 | 1009.4 |
| 20260507171718 | 59 | 45 | 2.0 | 7.0 | 0.20 | 0.52 | 0.44 | 94 | 1009.0 |
| 20260507171247 | 59 | 54 | 3.0 | 9.0 | 0.18 | 0.50 | 0.42 | 94 | 1009.0 |
| 20260507170736 | 59 | 349 | 2.0 | 9.0 | 0.16 | 0.48 | 0.40 | 94 | 1008.9 |
| 20260507170241 | 59 | 61 | 2.0 | 5.0 | 0.13 | 0.45 | 0.37 | 93 | 1008.7 |
| 20260507165728 | 59 | 57 | 3.0 | 5.0 | 0.09 | 0.41 | 0.33 | 93 | 1008.6 |
| 20260507165231 | 60 | 43 | 1.0 | 8.0 | 0.05 | 0.37 | 0.29 | 93 | 1008.9 |
| 20260507164714 | 60 | 43 | 4.0 | 8.0 | 0.01 | 0.33 | 0.25 | 93 | 1009.1 |
| 20260507164221 | 60 | 28 | 2.0 | 9.0 | 0.01 | 0.33 | 0.25 | 92 | 1008.8 |
| 20260507163725 | 62 | 12 | 4.0 | 12.0 | 0.01 | 0.32 | 0.24 | 92 | 1009.0 |
| 20260507163234 | 65 | 65 | 5.0 | 12.0 | 0.01 | 0.32 | 0.24 | 94 | 1009.2 |
| 20260507162734 | 66 | 34 | 1.0 | 2.0 | 0.01 | 0.32 | 0.24 | 94 | 1009.2 |
| 20260507162222 | 66 | 6 | 0.0 | 2.0 | 0.01 | 0.32 | 0.24 | 94 | 1009.5 |
| 20260507161724 | 66 | 359 | 0.0 | 1.0 | 0.01 | 0.32 | 0.24 | 94 | 1009.7 |
| 20260507161228 | 66 | 342 | 0.0 | 1.0 | 0.01 | 0.32 | 0.24 | 94 | 1009.6 |
| 20260507160718 | 66 | 357 | 0.0 | 2.0 | 0.02 | 0.32 | 0.24 | 94 | 1009.6 |
| 20260507160242 | 66 | 357 | 1.0 | 5.0 | 0.02 | 0.32 | 0.24 | 94 | 1009.6 |
| 20260507155727 | 66 | 358 | 1.0 | 5.0 | 0.02 | 0.32 | 0.24 | 94 | 1009.8 |
| 20260507155230 | 66 | 316 | 0.0 | 0.0 | 0.02 | 0.32 | 0.24 | 94 | 1009.6 |
| 20260507154714 | 67 | 292 | 0.0 | 0.0 | 0.02 | 0.32 | 0.24 | 94 | 1009.6 |
| 20260507154223 | 67 | 292 | 0.0 | 0.0 | 0.01 | 0.31 | 0.23 | 94 | 1009.6 |
| 20260507153727 | 67 | 236 | 0.0 | 0.0 | 0.02 | 0.31 | 0.23 | 94 | 1009.3 |
| 20260507153257 | 67 | 236 | 0.0 | 0.0 | 0.02 | 0.31 | 0.23 | 94 | 1009.1 |
| 20260507152721 | 67 | 236 | 0.0 | 0.0 | 0.02 | 0.31 | 0.23 | 94 | 1009.2 |
| 20260507152225 | 67 | 236 | 0.0 | 0.0 | 0.02 | 0.31 | 0.23 | 94 | 1009.4 |
| 20260507151714 | 67 | 236 | 0.0 | 0.0 | 0.03 | 0.31 | 0.23 | 94 | 1009.5 |
| 20260507151215 | 67 | 236 | 0.0 | 0.0 | 0.03 | 0.31 | 0.23 | 94 | 1009.5 |
| 20260507150720 | 67 | 236 | 0.0 | 0.0 | 0.02 | 0.30 | 0.22 | 94 | 1009.5 |
| 20260507150250 | 67 | 236 | 0.0 | 0.0 | 0.02 | 0.30 | 0.22 | 94 | 1009.5 |
| 20260507145737 | 67 | 236 | 0.0 | 0.0 | 0.02 | 0.30 | 0.22 | 94 | 1009.5 |
| 20260507145222 | 67 | 236 | 0.0 | 0.0 | 0.02 | 0.30 | 0.22 | 94 | 1009.3 |
| 20260507144729 | 67 | 236 | 0.0 | 0.0 | 0.02 | 0.30 | 0.22 | 94 | 1009.6 |
| 20260507144213 | 67 | 236 | 0.0 | 0.0 | 0.03 | 0.30 | 0.22 | 94 | 1009.7 |
| 20260507143714 | 67 | 236 | 0.0 | 0.0 | 0.02 | 0.29 | 0.21 | 94 | 1009.5 |
| 20260507143224 | 67 | 236 | 0.0 | 0.0 | 0.02 | 0.29 | 0.21 | 94 | 1009.4 |
| 20260507142729 | 67 | 236 | 0.0 | 0.0 | 0.02 | 0.29 | 0.21 | 94 | 1009.4 |
| 20260507142212 | 67 | 236 | 0.0 | 0.0 | 0.02 | 0.29 | 0.21 | 94 | 1009.4 |
| 20260507141743 | 67 | 236 | 0.0 | 0.0 | 0.01 | 0.28 | 0.20 | 94 | 1009.6 |
| 20260507141226 | 67 | 236 | 0.0 | 0.0 | 0.02 | 0.28 | 0.20 | 94 | 1009.6 |
| 20260507140717 | 67 | 232 | 0.0 | 4.0 | 0.02 | 0.28 | 0.20 | 94 | 1009.5 |
| 20260507140218 | 67 | 232 | 1.0 | 4.0 | 0.02 | 0.28 | 0.20 | 94 | 1009.5 |
| 20260507135722 | 67 | 247 | 0.0 | 3.0 | 0.02 | 0.28 | 0.20 | 94 | 1009.6 |
| 20260507135250 | 66 | 269 | 0.0 | 3.0 | 0.02 | 0.28 | 0.20 | 94 | 1009.8 |
| 20260507134713 | 66 | 266 | 1.0 | 6.0 | 0.02 | 0.28 | 0.20 | 94 | 1010.0 |
| 20260507134221 | 66 | 286 | 1.0 | 6.0 | 0.02 | 0.27 | 0.19 | 94 | 1010.0 |
| 20260507133728 | 66 | 253 | 0.0 | 3.0 | 0.02 | 0.27 | 0.19 | 94 | 1010.0 |
| 20260507133212 | 66 | 254 | 1.0 | 3.0 | 0.02 | 0.27 | 0.19 | 94 | 1010.1 |
| 20260507132718 | 66 | 245 | 0.0 | 4.0 | 0.02 | 0.27 | 0.19 | 94 | 1010.0 |
| 20260507132230 | 66 | 236 | 0.0 | 4.0 | 0.02 | 0.27 | 0.19 | 94 | 1010.0 |
| 20260507131751 | 66 | 255 | 0.0 | 3.0 | 0.02 | 0.27 | 0.19 | 94 | 1009.9 |
| 20260507131212 | 66 | 259 | 0.0 | 0.0 | 0.01 | 0.26 | 0.18 | 94 | 1009.8 |
| 20260507130721 | 66 | 259 | 0.0 | 0.0 | 0.02 | 0.26 | 0.18 | 94 | 1009.9 |
| 20260507130244 | 66 | 259 | 0.0 | 1.0 | 0.02 | 0.26 | 0.18 | 94 | 1009.8 |
| 20260507125713 | 66 | 259 | 0.0 | 1.0 | 0.02 | 0.26 | 0.18 | 94 | 1009.9 |
| 20260507125215 | 65 | 232 | 0.0 | 0.0 | 0.02 | 0.26 | 0.18 | 94 | 1010.1 |
| 20260507124718 | 65 | 232 | 0.0 | 0.0 | 0.02 | 0.26 | 0.18 | 94 | 1010.1 |
| 20260507124231 | 65 | 232 | 0.0 | 0.0 | 0.01 | 0.25 | 0.17 | 94 | 1010.1 |
| 20260507123712 | 65 | 232 | 0.0 | 0.0 | 0.01 | 0.25 | 0.17 | 94 | 1010.0 |
| 20260507123217 | 65 | 232 | 0.0 | 0.0 | 0.01 | 0.25 | 0.17 | 94 | 1010.0 |
| 20260507122728 | 65 | 232 | 0.0 | 0.0 | 0.01 | 0.25 | 0.17 | 94 | 1010.1 |
| 20260507122230 | 65 | 232 | 0.0 | 0.0 | 0.01 | 0.25 | 0.17 | 94 | 1010.0 |
| 20260507121712 | 65 | 232 | 0.0 | 0.0 | 0.02 | 0.25 | 0.17 | 94 | 1009.9 |
| 20260507121216 | 65 | 232 | 0.0 | 0.0 | 0.02 | 0.25 | 0.17 | 94 | 1010.0 |
| 20260507120726 | 65 | 232 | 0.0 | 0.0 | 0.01 | 0.24 | 0.16 | 94 | 1010.0 |
| 20260507120234 | 65 | 232 | 0.0 | 0.0 | 0.01 | 0.24 | 0.16 | 94 | 1010.2 |
| 20260507115714 | 65 | 232 | 0.0 | 0.0 | 0.01 | 0.24 | 0.16 | 94 | 1010.3 |
| 20260507115220 | 65 | 232 | 0.0 | 0.0 | 0.01 | 0.24 | 0.16 | 94 | 1010.2 |
| 20260507114733 | 65 | 232 | 0.0 | 0.0 | 0.01 | 0.24 | 0.16 | 94 | 1010.0 |
| 20260507114215 | 65 | 232 | 0.0 | 0.0 | 0.01 | 0.24 | 0.16 | 94 | 1010.5 |
| 20260507113720 | 65 | 232 | 0.0 | 0.0 | 0.01 | 0.24 | 0.16 | 94 | 1010.5 |
| 20260507113249 | 65 | 232 | 0.0 | 0.0 | 0.01 | 0.24 | 0.16 | 94 | 1010.5 |
| 20260507112734 | 65 | 232 | 0.0 | 0.0 | 0.01 | 0.24 | 0.16 | 94 | 1010.5 |
| 20260507112223 | 65 | 232 | 0.0 | 0.0 | 0.01 | 0.24 | 0.16 | 94 | 1010.4 |
| 20260507111727 | 65 | 232 | 0.0 | 0.0 | 0.00 | 0.23 | 0.15 | 94 | 1010.6 |
| 20260507111236 | 65 | 232 | 0.0 | 0.0 | 0.00 | 0.23 | 0.15 | 94 | 1010.5 |
| 20260507110720 | 64 | 232 | 0.0 | 0.0 | 0.00 | 0.23 | 0.15 | 94 | 1010.5 |
| 20260507110223 | 64 | 232 | 0.0 | 0.0 | 0.00 | 0.23 | 0.15 | 94 | 1010.4 |
| 20260507105731 | 65 | 232 | 0.0 | 0.0 | 0.00 | 0.23 | 0.15 | 94 | 1010.2 |
| 20260507105212 | 65 | 232 | 0.0 | 0.0 | 0.00 | 0.23 | 0.15 | 94 | 1010.0 |
| 20260507104716 | 65 | 232 | 0.0 | 0.0 | 0.00 | 0.23 | 0.15 | 94 | 1010.0 |
| 20260507104228 | 64 | 232 | 0.0 | 0.0 | 0.00 | 0.23 | 0.15 | 94 | 1009.9 |
| 20260507103714 | 64 | 232 | 0.0 | 1.0 | 0.00 | 0.23 | 0.15 | 94 | 1010.0 |
| 20260507103220 | 64 | 232 | 0.0 | 1.0 | 0.00 | 0.23 | 0.15 | 94 | 1010.2 |
| 20260507102731 | 64 | 253 | 0.0 | 1.0 | 0.00 | 0.23 | 0.15 | 94 | 1010.0 |
| 20260507102215 | 64 | 253 | 0.0 | 1.0 | 0.00 | 0.23 | 0.15 | 94 | 1009.9 |
| 20260507101720 | 64 | 253 | 0.0 | 1.0 | 0.00 | 0.23 | 0.15 | 94 | 1009.9 |
| 20260507101222 | 64 | 252 | 0.0 | 1.0 | 0.00 | 0.23 | 0.15 | 93 | 1009.9 |
| 20260507100719 | 64 | 211 | 0.0 | 0.0 | 0.01 | 0.23 | 0.15 | 94 | 1010.0 |
| 20260507100223 | 64 | 211 | 0.0 | 0.0 | 0.01 | 0.23 | 0.15 | 93 | 1010.0 |
| 20260507095749 | 64 | 211 | 0.0 | 0.0 | 0.01 | 0.23 | 0.15 | 93 | 1010.0 |
| 20260507095218 | 64 | 211 | 0.0 | 0.0 | 0.01 | 0.23 | 0.15 | 93 | 1010.0 |
| 20260507094723 | 64 | 211 | 0.0 | 0.0 | 0.01 | 0.23 | 0.15 | 93 | 1009.9 |
| 20260507094233 | 64 | 211 | 0.0 | 0.0 | 0.01 | 0.23 | 0.15 | 93 | 1010.1 |
| 20260507093714 | 64 | 211 | 0.0 | 0.0 | 0.01 | 0.23 | 0.15 | 93 | 1010.2 |
| 20260507093240 | 64 | 211 | 0.0 | 0.0 | 0.01 | 0.23 | 0.15 | 93 | 1010.0 |
| 20260507092728 | 64 | 211 | 0.0 | 0.0 | 0.01 | 0.23 | 0.15 | 93 | 1010.1 |
| 20260507092231 | 64 | 211 | 0.0 | 0.0 | 0.01 | 0.23 | 0.15 | 93 | 1010.0 |
| 20260507091717 | 64 | 209 | 0.0 | 0.0 | 0.01 | 0.23 | 0.15 | 93 | 1009.9 |
| 20260507091227 | 64 | 209 | 0.0 | 0.0 | 0.01 | 0.23 | 0.15 | 93 | 1010.0 |
| 20260507090727 | 64 | 209 | 0.0 | 0.0 | 0.00 | 0.22 | 0.14 | 93 | 1010.0 |
| 20260507090212 | 64 | 210 | 0.0 | 1.0 | 0.00 | 0.22 | 0.14 | 93 | 1010.2 |
| 20260507085725 | 65 | 210 | 0.0 | 1.0 | 0.00 | 0.22 | 0.14 | 93 | 1010.2 |
| 20260507085228 | 65 | 173 | 0.0 | 1.0 | 0.00 | 0.22 | 0.14 | 93 | 1010.3 |
| 20260507084712 | 65 | 173 | 0.0 | 0.0 | 0.00 | 0.22 | 0.14 | 93 | 1010.3 |
| 20260507084216 | 65 | 173 | 0.0 | 0.0 | 0.00 | 0.22 | 0.14 | 93 | 1010.2 |
| 20260507083725 | 65 | 173 | 0.0 | 0.0 | 0.00 | 0.22 | 0.14 | 93 | 1010.1 |
| 20260507083224 | 65 | 232 | 0.0 | 0.0 | 0.00 | 0.22 | 0.14 | 93 | 1010.4 |
| 20260507082734 | 65 | 232 | 0.0 | 0.0 | 0.00 | 0.22 | 0.14 | 93 | 1010.7 |
| 20260507082240 | 65 | 232 | 0.0 | 0.0 | 0.00 | 0.22 | 0.14 | 93 | 1010.8 |
| 20260507081750 | 65 | 232 | 0.0 | 0.0 | 0.00 | 0.22 | 0.14 | 93 | 1010.9 |
| 20260507081213 | 65 | 232 | 0.0 | 0.0 | 0.00 | 0.22 | 0.14 | 93 | 1010.8 |
| 20260507080721 | 65 | 232 | 0.0 | 0.0 | 0.00 | 0.22 | 0.14 | 93 | 1010.5 |
| 20260507080251 | 65 | 232 | 0.0 | 0.0 | 0.00 | 0.22 | 0.14 | 93 | 1010.5 |
| 20260507075714 | 65 | 232 | 0.0 | 0.0 | 0.00 | 0.22 | 0.14 | 93 | 1010.3 |
| 20260507075216 | 65 | 232 | 0.0 | 1.0 | 0.00 | 0.22 | 0.14 | 93 | 1010.6 |
| 20260507074724 | 65 | 232 | 0.0 | 1.0 | 0.00 | 0.22 | 0.14 | 93 | 1010.6 |
| 20260507074227 | 65 | 232 | 0.0 | 1.0 | 0.00 | 0.22 | 0.14 | 93 | 1010.7 |
| 20260507073735 | 65 | 232 | 0.0 | 1.0 | 0.01 | 0.22 | 0.14 | 93 | 1011.0 |
| 20260507073218 | 65 | 232 | 0.0 | 0.0 | 0.01 | 0.22 | 0.14 | 93 | 1011.0 |
| 20260507072742 | 65 | 232 | 0.0 | 0.0 | 0.01 | 0.22 | 0.14 | 93 | 1011.0 |
| 20260507072229 | 65 | 232 | 0.0 | 0.0 | 0.01 | 0.22 | 0.14 | 93 | 1011.1 |
| 20260507071713 | 65 | 232 | 0.0 | 0.0 | 0.02 | 0.22 | 0.14 | 93 | 1011.1 |
| 20260507071217 | 65 | 232 | 0.0 | 0.0 | 0.02 | 0.22 | 0.14 | 93 | 1011.0 |
| 20260507070727 | 65 | 232 | 0.0 | 2.0 | 0.02 | 0.22 | 0.14 | 93 | 1011.1 |
| 20260507070230 | 65 | 232 | 0.0 | 2.0 | 0.02 | 0.22 | 0.14 | 93 | 1011.3 |
| 20260507065714 | 65 | 232 | 0.0 | 2.0 | 0.03 | 0.22 | 0.14 | 93 | 1011.0 |
| 20260507065224 | 65 | 232 | 0.0 | 2.0 | 0.03 | 0.22 | 0.14 | 93 | 1011.1 |
| 20260507064726 | 65 | 233 | 0.0 | 5.0 | 0.04 | 0.22 | 0.14 | 92 | 1011.3 |
| 20260507064216 | 65 | 236 | 1.0 | 5.0 | 0.04 | 0.22 | 0.14 | 92 | 1011.6 |
| 20260507063722 | 65 | 193 | 0.0 | 3.0 | 0.04 | 0.21 | 0.13 | 92 | 1011.8 |
| 20260507063251 | 65 | 193 | 0.0 | 3.0 | 0.04 | 0.21 | 0.13 | 92 | 1011.9 |
| 20260507062715 | 65 | 297 | 0.0 | 0.0 | 0.05 | 0.21 | 0.13 | 92 | 1012.0 |
| 20260507062220 | 65 | 297 | 0.0 | 0.0 | 0.05 | 0.21 | 0.13 | 92 | 1011.8 |
| 20260507061728 | 65 | 297 | 0.0 | 0.0 | 0.05 | 0.20 | 0.12 | 92 | 1011.6 |
| 20260507061212 | 65 | 297 | 0.0 | 0.0 | 0.06 | 0.20 | 0.12 | 92 | 1011.4 |
| 20260507060718 | 65 | 297 | 0.0 | 0.0 | 0.06 | 0.20 | 0.12 | 92 | 1011.6 |
| 20260507060228 | 65 | 297 | 0.0 | 0.0 | 0.07 | 0.20 | 0.12 | 92 | 1011.8 |
| 20260507055726 | 65 | 297 | 0.0 | 0.0 | 0.06 | 0.19 | 0.11 | 92 | 1011.8 |
| 20260507055238 | 65 | 297 | 0.0 | 0.0 | 0.07 | 0.19 | 0.11 | 92 | 1011.8 |
| 20260507054720 | 65 | 297 | 0.0 | 0.0 | 0.07 | 0.18 | 0.10 | 92 | 1011.7 |
| 20260507054223 | 65 | 297 | 0.0 | 0.0 | 0.07 | 0.18 | 0.10 | 92 | 1011.8 |
| 20260507053737 | 65 | 297 | 0.0 | 0.0 | 0.07 | 0.17 | 0.09 | 92 | 1011.8 |
| 20260507053220 | 65 | 297 | 0.0 | 0.0 | 0.08 | 0.17 | 0.09 | 92 | 1011.6 |
| 20260507052725 | 65 | 297 | 0.0 | 3.0 | 0.07 | 0.16 | 0.08 | 92 | 1011.9 |
| 20260507052224 | 65 | 289 | 1.0 | 6.0 | 0.08 | 0.16 | 0.08 | 91 | 1012.0 |
| 20260507051734 | 66 | 186 | 1.0 | 6.0 | 0.07 | 0.15 | 0.07 | 91 | 1011.3 |
| 20260507051219 | 66 | 280 | 0.0 | 7.0 | 0.06 | 0.14 | 0.06 | 91 | 1011.9 |
| 20260507050728 | 66 | 229 | 2.0 | 9.0 | 0.06 | 0.14 | 0.06 | 91 | 1012.3 |
| 20260507050212 | 66 | 286 | 1.0 | 9.0 | 0.05 | 0.13 | 0.05 | 91 | 1011.7 |
| 20260507045715 | 66 | 228 | 2.0 | 5.0 | 0.05 | 0.13 | 0.05 | 91 | 1011.6 |
| 20260507045219 | 66 | 180 | 1.0 | 3.0 | 0.05 | 0.12 | 0.04 | 91 | 1011.3 |
| 20260507044728 | 66 | 228 | 0.0 | 5.0 | 0.04 | 0.11 | 0.03 | 90 | 1011.6 |
| 20260507044229 | 66 | 234 | 1.0 | 6.0 | 0.04 | 0.11 | 0.03 | 90 | 1012.0 |
| 20260507043738 | 66 | 207 | 2.0 | 6.0 | 0.03 | 0.10 | 0.02 | 90 | 1013.0 |
| 20260507043221 | 66 | 235 | 1.0 | 6.0 | 0.02 | 0.09 | 0.01 | 89 | 1013.2 |
| 20260507042725 | 66 | 189 | 1.0 | 12.0 | 0.02 | 0.09 | 0.01 | 89 | 1013.4 |
| 20260507042234 | 67 | 232 | 2.0 | 12.0 | 0.01 | 0.08 | 0.00 | 89 | 1013.5 |
| 20260507041717 | 67 | 262 | 2.0 | 9.0 | 0.02 | 0.08 | 0.00 | 89 | 1013.5 |
| 20260507041217 | 67 | 263 | 0.0 | 0.0 | 0.02 | 0.08 | 0.00 | 88 | 1013.5 |
| 20260507040718 | 67 | 261 | 0.0 | 0.0 | 0.02 | 0.08 | 0.00 | 88 | 1013.2 |
| 20260507040228 | 67 | 229 | 0.0 | 0.0 | 0.02 | 0.08 | 0.00 | 87 | 1013.0 |
| 20260507035734 | 67 | 228 | 0.0 | 0.0 | 0.02 | 0.08 | 0.08 | 87 | 1012.9 |
| 20260507035220 | 67 | 228 | 0.0 | 0.0 | 0.01 | 0.07 | 0.07 | 87 | 1012.7 |
| 20260507034724 | 67 | 261 | 0.0 | 0.0 | 0.01 | 0.07 | 0.07 | 86 | 1012.4 |
| 20260507034255 | 67 | 273 | 0.0 | 0.0 | 0.01 | 0.07 | 0.07 | 86 | 1012.1 |
| 20260507033720 | 67 | 273 | 0.0 | 0.0 | 0.01 | 0.07 | 0.07 | 86 | 1011.9 |
| 20260507033228 | 68 | 171 | 0.0 | 1.0 | 0.01 | 0.07 | 0.07 | 85 | 1011.9 |
| 20260507032730 | 68 | 223 | 0.0 | 1.0 | 0.01 | 0.07 | 0.07 | 85 | 1012.3 |
| 20260507032214 | 68 | 232 | 0.0 | 0.0 | 0.01 | 0.07 | 0.07 | 85 | 1012.5 |
| 20260507031727 | 68 | 235 | 0.0 | 5.0 | 0.00 | 0.06 | 0.06 | 84 | 1012.4 |
| 20260507031229 | 68 | 219 | 1.0 | 5.0 | 0.00 | 0.06 | 0.06 | 84 | 1012.5 |
| 20260507030714 | 68 | 218 | 0.0 | 0.0 | 0.00 | 0.06 | 0.06 | 84 | 1012.3 |
| 20260507030223 | 68 | 218 | 0.0 | 0.0 | 0.00 | 0.06 | 0.06 | 83 | 1012.2 |
| 20260507025727 | 68 | 197 | 0.0 | 0.0 | 0.00 | 0.06 | 0.06 | 84 | 1012.2 |
| 20260507025214 | 68 | 197 | 0.0 | 0.0 | 0.00 | 0.06 | 0.06 | 84 | 1012.1 |
| 20260507024725 | 68 | 213 | 0.0 | 0.0 | 0.00 | 0.06 | 0.06 | 84 | 1012.0 |
| 20260507024231 | 68 | 211 | 0.0 | 0.0 | 0.00 | 0.06 | 0.06 | 85 | 1011.9 |
| 20260507023715 | 68 | 214 | 0.0 | 0.0 | 0.00 | 0.06 | 0.06 | 86 | 1011.8 |
| 20260507023226 | 68 | 214 | 0.0 | 0.0 | 0.00 | 0.06 | 0.06 | 86 | 1011.8 |
| 20260507022730 | 68 | 168 | 0.0 | 0.0 | 0.00 | 0.06 | 0.06 | 86 | 1011.8 |
| 20260507022214 | 68 | 186 | 0.0 | 0.0 | 0.00 | 0.06 | 0.06 | 86 | 1011.8 |
| 20260507021724 | 68 | 101 | 0.0 | 0.0 | 0.00 | 0.06 | 0.06 | 86 | 1011.7 |
| 20260507021227 | 68 | 68 | 0.0 | 1.0 | 0.00 | 0.06 | 0.06 | 86 | 1011.4 |
| 20260507020712 | 68 | 68 | 0.0 | 1.0 | 0.00 | 0.06 | 0.06 | 86 | 1011.6 |
| 20260507020215 | 68 | 202 | 0.0 | 0.0 | 0.00 | 0.06 | 0.06 | 86 | 1011.7 |